Location: Potomac
(46.8816°N, 113.5795°W)
Time: 01:14:56
(UTC+00:00)

JY1SAT - Pass Details

Date: 30 June 2022
Orbit: 564 x 586 km, 97.6° (Epoch: 15 August)

Event Time Altitude Azimuth Distance (km) Brightness Sun altitude
Exits shadow 05:45:41 12° 208° (SSW) 1,800 ? -15.5°
Maximum altitude 05:48:55 28° 265° (W) 1,130 ? -15.7°
Drops below altitude 10° 05:52:31 10° 325° (NW) 1,923 ? -16.0°
Sets 05:54:57 0° 337° (NNW) 2,828 ? -16.2°
